Location: Burland Observatory
(39.4088°N, 105.4217°W)
Time: 02:40:58
(UTC-07:00)

SR - Pass Details

Date: 13 December 2019
Orbit: 574 x 882 km, 66.7° (Epoch: 27 January)

Event Time Altitude Azimuth Distance (km) Brightness Sun altitude
Rises 15:47:55 0° 343° (NNW) 3,482 ? 7.3°
Reaches altitude 10° 15:51:44 10° 7° (N) 2,523 ? 6.7°
Maximum altitude 15:54:52 15° 39° (NE) 2,186 ? 6.2°
Drops below altitude 10° 15:57:56 10° 72° (ENE) 2,457 ? 5.7°
Sets 16:01:33 0° 96° (E) 3,333 ? 5.2°
